Regional Weather Roundup
Issued by NWS

Home | Current Version | Previous Version | Graphics & Text | Print | Product List | Glossary On
Versions: 1 2 3 4 5 6 7 8 9 10 11 12 13 14 15 16 17 18 19 20 21 22 23 24 25 26 27 28 29 30 31 32 33 34 35 36 37 38 39 40 41 42 43 44 45 46 47 48 49 50
000
ASUS43 KFSD 212002
RWRSD

WEATHER ROUNDUP FOR SOUTH DAKOTA
NATIONAL WEATHER SERVICE SIOUX FALLS SD
300 PM CDT THU AUG 21 2014

NOTE: "FAIR" INDICATES FEW OR NO CLOUDS BELOW 12,000 FEET WITH NO
SIGNIFICANT WEATHER AND/OR OBSTRUCTIONS TO VISIBILITY.


SDZ001>005-009-010-012>017-212100-
NORTHWEST AND NORTH CENTRAL SOUTH DAKOTA

CITY           SKY/WX    TMP DP  RH WIND       PRES   REMARKS
BUFFALO          N/A     82  55  39 NE8       29.89S
FAITH            N/A     83  54  36 CALM      29.92S
MOBRIDGE       SUNNY     82  65  56 NW8       29.84S
$$

SDZ012>016-024>037-041>051-057-063-072>074-212100-
SOUTHWEST AND SOUTH CENTRAL SOUTH DAKOTA

CITY           SKY/WX    TMP DP  RH WIND       PRES   REMARKS
RAPID CTY ARPT MOSUNNY   81  55  40 SE8       29.96F
PIERRE         SUNNY     84  63  49 W14       29.86R
CUSTER         PTSUNNY   74  50  42 VRB6      30.07F
ELLSWORTH AFB  MOSUNNY   82  55  38 VRB2      29.95F
PHILIP         SUNNY     88  53  30 NE6       29.89F
PINE RIDGE     SUNNY     83  56  39 CALM      29.97F
WINNER         FAIR      88  62  41 N12       29.89R
$$

SDZ004>011-016>023-039-040-212100-
NORTHEAST SOUTH DAKOTA

CITY           SKY/WX    TMP DP  RH WIND       PRES   REMARKS
ABERDEEN       MOSUNNY   82  68  62 NW10      29.80R
WATERTOWN      SUNNY     81  68  64 W13       29.82R
SISSETON         N/A     81  70  69 NW14      29.77R
$$

SDZ017-020-022-023-036>040-048>070-212100-
SOUTHEAST SOUTH DAKOTA

CITY           SKY/WX    TMP DP  RH WIND       PRES   REMARKS
SIOUX FALLS    MOSUNNY   90  75  61 NW10      29.79R HX 100
HURON          SUNNY     86  67  52 NW13      29.80S
CHAMBERLAIN    SUNNY     81  65  58 N12       29.86S
MITCHELL       MOSUNNY   87  69  54 VRB6      29.82R
YANKTON        SUNNY     86  73  66 W9        29.80R
$$

ABBREVIATIONS USED IN REMARKS
   TC - TEMPERATURE IN CELSIUS
  WCI - WIND CHILL INDEX
   HX - HEAT INDEX
  VSB - VISIBILITY




USA.gov is the U.S. government's official web portal to all federal, state and local government web resources and services.